Location: Querceta
(43.9763°N, 10.1983°E)
Time: 08:00:57
(UTC+01:00)

X-37B - Visible Passes

Search period start: 26 February 2021 00:00
Search period end: 08 March 2021 00:00
Orbit: 383 x 391 km, 45.0° (Epoch: 10 February)

Date Brightness Start Highest point End Pass type
(mag) Time Alt. Az. Time Alt. Az. Time Alt. Az.
26 Feb 1.1 05:07:50 59° ENE 05:07:50 59° ENE 05:10:32 10° E visible
27 Feb 4.2 04:12:04 10° E 04:12:04 10° E 04:12:08 10° E visible
27 Feb 0.6 05:44:21 32° W 05:45:39 70° SSW 05:48:48 10° ESE visible
28 Feb 2.4 04:48:39 31° E 04:48:39 31° E 04:50:28 10° E visible
28 Feb 1.8 06:20:57 10° W 06:23:44 28° SSW 06:26:30 10° SSE visible
01 Mar 0.9 05:25:18 45° SW 05:25:29 45° SSW 05:28:31 10° SE visible
02 Mar 3.5 04:29:45 14° ESE 04:29:45 14° ESE 04:30:20 10° ESE visible
02 Mar 2.5 06:02:03 14° WSW 06:03:26 17° SW 06:05:36 10° S visible
03 Mar 2.5 05:06:36 20° SSE 05:06:36 20° SSE 05:08:02 10° SSE visible
